Location: Unspecified
(7.2333°N, 0.0000°E)
Time: 02:52:40
(UTC+00:00)

SO-50 - Visible Passes

Search period start: 05 April 2026 00:00
Search period end: 15 April 2026 00:00
Orbit: 568 x 673 km, 64.6° (Epoch: 29 March)

Date Brightness Start Highest point End Pass type
(mag) Time Alt. Az. Time Alt. Az. Time Alt. Az.
12 Apr ? 20:08:30 10° NNW 20:09:41 18° N 20:09:41 18° N visible
13 Apr ? 20:26:09 10° NW 20:27:46 21° NW 20:27:46 21° NW visible
14 Apr ? 19:04:44 10° NNE 19:08:21 23° ENE 19:08:44 22° ENE visible
14 Apr ? 20:45:00 10° WNW 20:45:58 13° W 20:45:58 13° W visible
